KBKFKEGE

Guest
Details From KBKF - BUCKLEY AFB
To KEGE - EAGLE CO RGNL
Flight Number -
Tags generated
Created
Modified
Stats Distance 100 nm / 186 km
Max Altitude 2,100 ft / 640 m
Waypoints 3
Social Downloads 0
Likes 0
Share VATSIM

Download

Looking for another format? Having issues loading an existing format? Contact us
Advertisement - Login to hide

Notes

Basic altitude profile: - Ascent Rate: 2500ft/min - Ascent Speed: 250kts - Cruise Altitude: 35000ft - Cruise Speed: 420kts - Descent Rate: 1500ft/min - Descent Speed: 250kts Options: - Use NATs: yes - Use PACOTS: yes - Use low airways: yes - Use high airways: yes

Route

KBKF VAILE KEGE

ID Type Via Altitude Latitude Longitude Leg Dist Tot Dist Heading (true) Name
O KBKF APT - 0 ft / 0 m 39.70176˚ -104.75196˚ - 0 nm - BUCKLEY AFB
VAILE FIX - 2,100 ft / 640 m 39.67293˚ -106.70824˚ 90 nm 90 nm 270° / 268° -
O KEGE APT - 0 ft / 0 m 39.64257˚ -106.91770˚ 9 nm 100 nm 259° / 259° EAGLE CO RGNL

Altitude Profile

Advertisement - Login to hide

KBKF

Details ICAO KBKF (BKF)
Name BUCKLEY AFB
Region United States
Timezone America/Denver (UTC-6.0)
Stats Elevation 5,662 ft / 1,726 m (AMSL)
Location 39.701758° -104.751961°
Runways 1
Magnetic Variation 8.043° E

METAR

KBKF 270758Z 16009KT 10SM FEW160 BKN220 19/M05 A2985 RMK AO2A SLP018 T01891052

Decode

TAF

TAF KBKF 270101Z 2701/2807 20009KT 9999 FEW140 BKN220 QNH2981INS BECMG 2711/2712 19012KT 9999 BKN250 QNH2984INS BECMG 2717/2718 16012G18KT 9999 FEW250 510009 QNH2977INS TEMPO 2718/2803 16015G25KT 520009 BECMG 2803/2804 16012KT 9999 FEW250 QNH2981INS TX34/2723Z TN16/2712Z

Decode

Departure Runways

ID Width Length Bearing (true) Bearing (mag) Surface Threshold Offset Overrun Length
14 150 ft / 46 m 11,015 ft / 3,357 m 151.17° 143.13° Asphalt 0 ft / 0 m 750 ft / 229 m
32 150 ft / 46 m 11,015 ft / 3,357 m 331.18° 323.14° Asphalt 0 ft / 0 m 1,000 ft / 305 m

KEGE

Details ICAO KEGE (EGE)
Name EAGLE CO RGNL
Region United States
Timezone America/Denver (UTC-6.0)
Stats Elevation 6,540 ft / 1,993 m (AMSL)
Location 39.642567° -106.917696°
Runways 1
Magnetic Variation 9.119° E

METAR

KEGE 270756Z AUTO 11006KT 10SM CLR 11/M05 A2996 RMK AO2 SLP074 T01111050

Decode

TAF

KEGE 270523Z 2705/2806 18009KT P6SM BKN200 FM270900 VRB03KT P6SM FEW250 FM271200 17005KT P6SM SKC FM271700 25005KT P6SM FEW250 FM271900 24010G20KT P6SM FEW250 AMD LTD TO CLD VIS AND WIND TIL 271300

Decode

Destination Runways

ID Width Length Bearing (true) Bearing (mag) Surface Threshold Offset Overrun Length
07 150 ft / 46 m 7,981 ft / 2,433 m 81.90° 72.78° Asphalt 0 ft / 0 m 0 ft / 0 m
25 150 ft / 46 m 7,981 ft / 2,433 m 261.92° 252.80° Asphalt 0 ft / 0 m 0 ft / 0 m

Approach Navaids

Runway Type Ident Frequency Range Bearing (true) Bearing (mag) Slope Elevation
25 Localiser IESJ 109.75 MHz 18 nm / 33 km 258.91° 249.79° - 6,461 ft / 1,969 m (AMSL)
25 DME IESJ 109.75 MHz 18 nm / 33 km - - - 6,473 ft / 1,973 m (AMSL)

Popular Alternatives